Flag for U.S.A. Weather past 2 weeks in Sterling Heights, Michigan, U.S.A.

Now
33 °F

Scattered clouds.


Feels Like: 24 °F
Forecast: 14 / 31 °F
Wind: 12 mph from Southwest

Location: Selfridge Air National Guard Base

Current Time: Jan 31, 2015 at 2:54:59 PM

Latest Report: Jan 31, 2015 at 1:55 PM


Visibility: 10 mi

Pressure: 30.22 "Hg

Humidity: 58%

Dew point: 19 °F

Location of Sterling HeightsLocation

Historic Weather in Sterling Heights — Graph

°F

Sterling Heights temperature yesterday

Maximum temperature yesterday: 27 °F (at 12:58 AM)
Minimum temperature yesterday: 5 °F (at 8:58 PM)
Average temperature yesterday: 15 °F

Past Weeks' High & Low Weather Summary

 TemperatureHumidityPressure
High42 °F (Jan 18, 12:58 AM)95% (Jan 23, 12:58 AM)30.47 "Hg (Jan 23, 12:58 AM)
Low5 °F (Jan 30, 8:58 PM)51% (Jan 30, 1:55 PM)29.55 "Hg (Jan 24, 2:55 PM)
Average24 °F77%30.04 "Hg
* Reported Jan 16 12:55 PM — Jan 31 12:55 PM, Sterling Heights, Weather by CustomWeather, © 2014

Note: Actual official high and low records may vary slightly from our data, if they occured in-between our weather recording intervals... More about our weather records

Advertising

Sterling Heights weather history for previous 24 hours

 ConditionsComfort  
Time TempWeatherWind HumidityBarometerVisibility
12:55 PM
Jan 31
30 °FPassing clouds.10 mph61%30.24 "Hg10 mi
11:55 AM27 °FPassing clouds.8 mph68%30.27 "Hg10 mi
10:55 AM24 °FPartly sunny.6 mph70%30.29 "Hg10 mi
9:55 AM22 °FPartly sunny.10 mph70%30.30 "Hg10 mi
8:55 AM18 °FBroken clouds.8 mph78%30.32 "Hg10 mi
7:55 AM17 °FOvercast.7 mph77%30.33 "Hg10 mi
7:03 AM14 °FPartly cloudy.6 mph79%30.27 "Hg10 mi
6:58 AM13 °FPassing clouds.6 mph82%30.32 "Hg10 mi
5:58 AM13 °FMostly cloudy.3 mph84%30.34 "Hg10 mi
4:58 AM12 °FMostly cloudy.5 mph81%30.36 "Hg10 mi
3:58 AM10 °FMostly cloudy.No wind81%30.37 "Hg10 mi
2:58 AM8 °FOvercast.1 mph81%30.39 "Hg10 mi
1:58 AM9 °FOvercast.2 mph78%30.40 "Hg10 mi
12:58 AM8 °FPassing clouds.5 mph77%30.41 "Hg10 mi
11:58 PM
Jan 30
8 °FClear.8 mph74%30.43 "Hg10 mi
10:58 PM10 °FPassing clouds.3 mph72%30.44 "Hg10 mi
9:58 PM8 °FPartly cloudy.3 mph78%30.45 "Hg10 mi
8:58 PM5 °FPassing clouds.6 mph75%30.45 "Hg10 mi
7:55 PM8 °FClear.1 mph66%30.47 "Hg12 mi
6:55 PM9 °FClear.3 mph67%30.47 "Hg12 mi
5:55 PM14 °FPassing clouds.5 mph53%30.47 "Hg12 mi
4:55 PM15 °FPassing clouds.8 mph53%30.47 "Hg12 mi
3:55 PM16 °FPassing clouds.9 mph51%30.47 "Hg12 mi
2:55 PM16 °FPassing clouds.15 mph53%30.47 "Hg12 mi
Weather by CustomWeather, © 2014

See weather overviewHow to use our weather pages